Terug naar catalogus

SL-8 R/B

ActiefPO
NORAD 10918·ROCKET BODY·🇷🇺 Russia

Gelanceerd May 23, 1978 vanaf Plesetsk Cosmodrome

Loading…

Volgende Passages (komende 24 uur)

TLE

VersSource: Space-Track

Epoch: Sep 14, 2026, 15:23 UTC

1 10918U 78053B   26257.64151032  .00000091  00000-0  76261-4 0  9992
2 10918  82.9176 326.7311 0028654 276.7331 247.6452 13.77579699427388

Volg SL-8 R/B in realtime met AllMySat

Download on the App Store